To NAV CANADA Home Page Login to a new session Search on AWWS site Feedback and Comments Disclaimer Vers la page française équivalente Tips FAQ What's new on the site To the Forecasts and Observations / NOTAM section To "File a Flight Plan" website Publications and other links Update of the User's profile FIC Telephone Numbers My Weather Data Folder Route Weather Data Regional Weather Data Local Weather Data To the Forecasts and Observations / NOTAM section
Request Generated 07/23/2016 at 13:04:55 UTC . Weather information available at that time is displayed.

METAR/TAF

HOPE/BC    (show WxCam)

METAR CYHE 231300Z AUTO 22005KT 190V280 9SM OVC040 17/12 A3022 RMK
SLP234=
METAR CYHE 231200Z AUTO 30005KT 250V330 9SM OVC046 17/12 A3021 RMK
SLP232=
METAR CYHE 231100Z AUTO 28006KT 250V320 9SM SCT050 BKN070 OVC090
17/12 A3021 RMK SLP231=

CYHE - No TAF is issued for this station

Your time UTC time
Weather data provided by Environment Canada and NAV CANADA